Tracking 29892 objects as of 21-Nov-2024
HD Live streaming from Space Station
objects crossing your sky now

SL-12 R/B(2)

Track SL-12 R/B(2) now!


NORAD ID: 28240
Int'l Code: 2004-015D
Perigee: 35,608.4 km
Apogee: 35,736.1 km
Inclination: 12.8 °
Period: 1,429.9 minutes
Semi major axis: 42043 km
RCS: 1.2715 m2 (large)
Launch date: April 26, 2004
Source: Commonwealth of Independent States (former USSR) (CIS)
Launch site: TYURATAM MISSILE AND SPACE COMPLEX (TTMTR)

Note: This is a ROCKET BODY
Your satellite tracking list
Your tracking list is empty




NASA's NSSDC Master Catalog

Two Line Element Set (TLE):
1 28240U 04015D   24325.50876622 -.00000147  00000-0  00000-0 0  9991
2 28240  12.8221  18.5169 0015187 313.1545  59.8917  1.00706695 75632
Source of the keplerian elements: AFSPC